User: anonymous   Login
Location: Unspecified
(0.0000°N, 0.0000°E)
Time: 18:27:36
(UTC+00:00)
Language:

Optus B3 - Orbit

View from above orbital plane
View from above orbital plane
View from above satellite
View from above satellite

Ground track
Ground track

The orbit data is extracted from the following two-line orbital elements,

1 23227U 94055A   17352.15699098 -.00000120  00000-0  00000+0 0  9997
2 23227   7.6788  49.0928 0008275 261.8245 128.2314  0.98696964 85276
Epoch (UTC): 18 December 2017 03:46:04
Eccentricity: 0.0008275
inclination: 7.6788°
perigee height: 36198 km
apogee height: 36269 km
right ascension of ascending node: 49.0928°
argument of perigee: 261.8245°
revolutions per day: 0.98696964
mean anomaly at epoch: 128.2314°
orbit number at epoch: 8527

The dashed part of the orbit path shows where the satellite is in the earth's shadow,  

DLR